Soldotna, AK

11:11 AM AKDT on September 25, 2017 (GMT -0800)
Soldotna

Weather History for PASX - November, 2011

Change the Weather History Date:

Friday, November 11, 2011

  Actual Average Record
Temperature  
Mean Temperature 14 °F -  
Max Temperature 21 °F 30 °F 46 °F (2014)
Min Temperature 8 °F 17 °F -12 °F (1969)
Degree Days  
Heating Degree Days 52    
Moisture  
Dew Point 14 °F    
Average Humidity 93    
Maximum Humidity 100    
Minimum Humidity 79    
Precipitation  
Precipitation 0.00 in - - ()
Sea Level Pressure  
Sea Level Pressure 29.58 in    
Wind  
Wind Speed 5 mph (ENE)    
Max Wind Speed 13 mph    
Max Gust Speed -    
Visibility 8 miles    
Events      
Averages and records for this station are not official NWS values.
T = Trace of Precipitation, MM = Missing Value Source: NWS Daily Summary

Daily Weather History Graph

Daily Weather History Graph

Search for Another Location

Airport or City:

Trip Planner

Search our weather history database for the weather conditions in past years. The results will help you decide how hot, cold, wet, or windy it might be!

Date:

Astronomy

Nov. 11, 2011 Rise Set
Actual Time 8:54 AM AKST 4:40 PM AKST
Civil Twilight 8:05 AM AKST 5:29 PM AKST
Nautical Twilight 7:13 AM AKST 6:21 PM AKST
Astronomical Twilight 6:24 AM AKST 7:10 PM AKST
Moon 4:44 PM AKST (11/11) 10:23 AM AKST (11/11)
Length of Visible Light 9h 23m
Length of Day
7h 46m
Full, 99% of the Moon is Illuminated
Nov 11
Full
Nov 18
Last Quarter
Nov 24
New
Dec 2
First Quarter
Dec 10
Full

Hourly Weather History & Observations

Time (AKST) Temp. Windchill Dew Point Humidity Pressure Visibility Wind Dir Wind Speed Gust Speed Precip Events Conditions
12:16 AM 10.4 °F 4.0 °F 8.6 °F 92% 29.82 in 10.0 mi NE 3.5 mph - N/A   Clear
12:36 AM 8.6 °F - 3.2 °F 79% 29.83 in 10.0 mi Calm Calm - N/A   Clear
12:56 AM 10.4 °F 4.0 °F 8.6 °F 92% 29.82 in 10.0 mi ENE 3.5 mph - N/A   Clear
1:16 AM 12.2 °F 4.3 °F 10.4 °F 92% 29.83 in 10.0 mi ENE 4.6 mph - N/A   Clear
1:36 AM 8.6 °F 0.1 °F 3.2 °F 79% 29.82 in 10.0 mi East 4.6 mph - N/A   Clear
1:56 AM 10.4 °F 0.8 °F 10.4 °F 100% 29.82 in 10.0 mi East 5.8 mph - N/A   Clear
2:16 AM 12.2 °F 1.7 °F 12.2 °F 100% 29.81 in 10.0 mi East 6.9 mph - N/A   Clear
2:36 AM 10.4 °F 0.8 °F 10.4 °F 100% 29.80 in 10.0 mi East 5.8 mph - N/A   Clear
2:56 AM 12.2 °F 2.9 °F 12.2 °F 100% 29.80 in 10.0 mi East 5.8 mph - N/A   Clear
3:16 AM 12.2 °F 1.7 °F 8.6 °F 85% 29.79 in 10.0 mi East 6.9 mph - N/A   Clear
3:36 AM 10.4 °F - 8.6 °F 92% 29.79 in 10.0 mi Calm Calm - N/A   Clear
3:56 AM 10.4 °F 0.8 °F 8.6 °F 92% 29.78 in 10.0 mi ENE 5.8 mph - N/A   Clear
4:16 AM 10.4 °F 0.8 °F 8.6 °F 92% 29.79 in 10.0 mi East 5.8 mph - N/A   Clear
4:36 AM 12.2 °F 6.1 °F 8.6 °F 85% 29.78 in 10.0 mi East 3.5 mph - N/A   Clear
4:56 AM 10.4 °F 0.8 °F 8.6 °F 92% 29.78 in 10.0 mi ENE 5.8 mph - N/A   Clear
5:16 AM 10.4 °F 2.2 °F 8.6 °F 92% 29.78 in 10.0 mi East 4.6 mph - N/A   Clear
5:36 AM 12.2 °F 2.9 °F 10.4 °F 92% 29.76 in 10.0 mi East 5.8 mph - N/A   Clear
5:56 AM 12.2 °F 2.9 °F 10.4 °F 92% 29.74 in 10.0 mi ESE 5.8 mph - N/A   Clear
6:16 AM 12.2 °F 1.7 °F 10.4 °F 92% 29.74 in 10.0 mi ESE 6.9 mph - N/A   Clear
6:36 AM 12.2 °F 1.7 °F 10.4 °F 92% 29.73 in 10.0 mi ESE 6.9 mph - N/A   Clear
6:56 AM 12.2 °F 4.3 °F 10.4 °F 92% 29.72 in 10.0 mi SE 4.6 mph - N/A   Clear
7:16 AM 14.0 °F 5.1 °F 12.2 °F 93% 29.71 in 10.0 mi East 5.8 mph - N/A   Clear
7:36 AM 14.0 °F - 12.2 °F 93% 29.70 in 10.0 mi Calm Calm - N/A   Clear
7:56 AM 15.8 °F - 12.2 °F 86% 29.70 in 10.0 mi Calm Calm - N/A   Clear
8:16 AM 15.8 °F 8.6 °F 14.0 °F 93% 29.70 in 10.0 mi East 4.6 mph - N/A   Mostly Cloudy
8:36 AM 15.8 °F 8.6 °F 14.0 °F 93% 29.69 in 10.0 mi East 4.6 mph - N/A   Overcast
8:56 AM 15.8 °F 8.6 °F 15.8 °F 100% 29.66 in 10.0 mi ENE 4.6 mph - N/A   Overcast
9:16 AM 17.6 °F 12.3 °F 15.8 °F 93% 29.66 in 10.0 mi ENE 3.5 mph - N/A   Overcast
9:36 AM 17.6 °F 9.3 °F 17.6 °F 100% 29.63 in 10.0 mi ENE 5.8 mph - N/A   Overcast
9:56 AM 17.6 °F 9.3 °F 17.6 °F 100% 29.61 in 10.0 mi ENE 5.8 mph - N/A   Overcast
10:16 AM 19.4 °F 11.5 °F 17.6 °F 93% 29.60 in 10.0 mi ENE 5.8 mph - N/A   Overcast
10:36 AM 19.4 °F 10.4 °F 17.6 °F 93% 29.58 in 10.0 mi NE 6.9 mph - N/A   Overcast
10:56 AM 19.4 °F 10.4 °F 17.6 °F 93% 29.56 in 10.0 mi NE 6.9 mph - N/A   Overcast
11:16 AM 19.4 °F 7.9 °F 19.4 °F 100% 29.54 in 10.0 mi ENE 10.4 mph - N/A   Overcast
11:36 AM 19.4 °F 10.4 °F 19.4 °F 100% 29.52 in 10.0 mi NE 6.9 mph - N/A   Overcast
11:56 AM 19.4 °F 10.4 °F 17.6 °F 93% 29.51 in 10.0 mi ENE 6.9 mph - N/A   Overcast
12:16 PM 19.4 °F 7.9 °F 17.6 °F 93% 29.48 in 10.0 mi ENE 10.4 mph - N/A   Overcast
12:36 PM 19.4 °F 7.9 °F 17.6 °F 93% 29.47 in 10.0 mi ENE 10.4 mph - N/A   Overcast
12:56 PM 19.4 °F 6.6 °F 17.6 °F 93% 29.46 in 10.0 mi NE 12.7 mph - N/A   Overcast
1:16 PM 19.4 °F 9.5 °F 17.6 °F 93% 29.44 in 10.0 mi NE 8.1 mph - N/A   Overcast
1:36 PM 19.4 °F 9.5 °F 17.6 °F 93% 29.43 in 10.0 mi NE 8.1 mph - N/A   Overcast
1:56 PM 19.4 °F 9.5 °F 15.8 °F 86% 29.41 in 9.0 mi ENE 8.1 mph - N/A   Overcast
2:16 PM 19.4 °F 9.5 °F 19.4 °F 100% 29.38 in 5.0 mi ENE 8.1 mph - N/A   Overcast
2:36 PM 19.4 °F 10.4 °F 17.6 °F 93% 29.37 in 2.5 mi ENE 6.9 mph - N/A   Overcast
2:56 PM 19.4 °F 10.4 °F 17.6 °F 93% 29.35 in 5.0 mi ENE 6.9 mph - N/A   Overcast
3:16 PM 19.4 °F 11.5 °F 17.6 °F 93% 29.33 in 3.0 mi NE 5.8 mph - N/A   Overcast
3:36 PM 19.4 °F 14.3 °F 17.6 °F 93% 29.30 in 1.0 mi NE 3.5 mph - N/A   Overcast
3:56 PM 19.4 °F 11.5 °F 17.6 °F 93% 29.28 in 1.0 mi NE 5.8 mph - N/A   Overcast
4:16 PM 19.4 °F 10.4 °F 17.6 °F 93% 29.25 in 1.2 mi ENE 6.9 mph - N/A   Overcast
4:36 PM 19.4 °F 10.4 °F 17.6 °F 93% 29.24 in 1.5 mi NE 6.9 mph - N/A   Overcast
4:56 PM 19.4 °F 10.4 °F 17.6 °F 93% 29.21 in 2.0 mi NE 6.9 mph - N/A   Overcast
5:16 PM 19.4 °F 8.6 °F 17.6 °F 93% 29.18 in 2.0 mi ENE 9.2 mph - N/A   Overcast
5:36 PM 19.4 °F 10.4 °F 17.6 °F 93% 29.15 in 2.5 mi ENE 6.9 mph - N/A   Overcast
5:56 PM 19.4 °F 10.4 °F 17.6 °F 93% 29.12 in 3.0 mi ENE 6.9 mph - N/A   Overcast
6:16 PM 21.2 °F 10.9 °F 19.4 °F 93% 29.08 in 3.0 mi ENE 9.2 mph - N/A   Overcast
6:36 PM 21.2 °F 10.9 °F 19.4 °F 93% 29.05 in 5.0 mi ENE 9.2 mph - N/A   Overcast
6:56 PM 21.2 °F 10.1 °F 19.4 °F 93% 29.02 in 8.0 mi ENE 10.4 mph - N/A   Overcast
7:16 PM 23.0 °F 14.7 °F 21.2 °F 93% 28.98 in 10.0 mi ENE 6.9 mph - N/A   Overcast
7:36 PM 23.0 °F 13.9 °F 21.2 °F 93% 28.96 in 10.0 mi NE 8.1 mph - N/A   Overcast
7:56 PM 24.8 °F 14.0 °F 21.2 °F 86% 28.93 in 10.0 mi NE 11.5 mph - N/A   Overcast
8:16 PM 23.0 °F 13.1 °F 21.2 °F 93% 28.90 in 4.0 mi NE 9.2 mph 17.3 mph N/A   Overcast
8:36 PM 23.0 °F 14.7 °F 21.2 °F 93% 28.89 in 5.0 mi NE 6.9 mph 17.3 mph N/A   Overcast
8:56 PM 23.0 °F 13.1 °F 21.2 °F 93% 28.90 in 2.5 mi NNE 9.2 mph - N/A   Overcast
9:16 PM 23.0 °F 14.7 °F 21.2 °F 93% 28.90 in 1.8 mi NNE 6.9 mph - N/A   Overcast
9:36 PM 23.0 °F 13.1 °F 21.2 °F 93% 28.90 in 2.5 mi NNE 9.2 mph - N/A   Overcast
9:56 PM 24.8 °F 17.9 °F 21.2 °F 86% 28.91 in 1.2 mi NNE 5.8 mph - N/A   Overcast
10:16 PM 24.8 °F 17.9 °F 21.2 °F 86% 28.91 in 2.0 mi ENE 5.8 mph - N/A   Overcast
10:36 PM 23.0 °F 14.7 °F 21.2 °F 93% 28.91 in 0.8 mi ENE 6.9 mph - N/A   Overcast
10:56 PM 23.0 °F 15.8 °F 21.2 °F 93% 28.91 in 1.0 mi ENE 5.8 mph - N/A   Overcast
11:16 PM 23.0 °F 14.7 °F 21.2 °F 93% 28.90 in 1.5 mi ENE 6.9 mph - N/A   Overcast
11:36 PM 24.8 °F 16.9 °F 21.2 °F 86% 28.90 in 1.2 mi NE 6.9 mph - N/A   Overcast
11:56 PM 24.8 °F 17.9 °F 21.2 °F 86% 28.90 in 1.8 mi NE 5.8 mph - N/A   Overcast